Regional Weather Roundup
Issued by NWS Midland/Odessa, TX

Skip options and go directly to product.
Home | Oldest Version | Next Version | Current Version | All | Text Only | Save Text | Print | Product List | Glossary On

Skip product version selection by date and time.   
248
ASUS44 KMAF 240910
RWRMAF
MIDLAND AREA WEATHER ROUNDUP
NATIONAL WEATHER SERVICE MIDLAND TX
300 AM CST FRI FEB 24 2017

...IN SOUTHWEST TEXAS AND SOUTHEAST NEW MEXICO...

CITY           SKY/WX    TMP DP  RH WIND       PRES   REMARKS
ALPINE         CLEAR     58  19  21 W14       29.91S
ANDREWS        FAIR      54  16  23 W10       29.77S
ARTESIA        CLEAR     43   7  22 W9        29.78S WCI  37
BIG SPRING     CLEAR     59  19  21 W16       29.75S
CARLSBAD       CLEAR     55   5  13 W14       29.75S
DRYDEN           N/A     58  24  27 NW3       29.74R
FORT STOCKTON  CLEAR     65  16  15 W21G29    29.77S
GUAD PASS      CLEAR     47   6  18 W39G47    29.84R WCI  37
HOBBS          CLEAR     41  16  36 W9        29.80R WCI  35
MARFA          CLEAR     51  18  27 W6        29.91S
MIDLAND AIRPK  PTCLDY    57  17  20 W17       29.75R
MIDLAND INTL   CLEAR     56  15  20 NW18      29.74R
ODESSA         CLEAR     55  13  18 NW13      29.77R
PECOS          CLEAR     54  11  18 W13       29.78S
PRESIDIO       FAIR      65  20  18 W12       29.85S
SEMINOLE       CLEAR     50  20  31 W10       29.79R
SNYDER         CLEAR     55  25  31 SW7       29.69R
WINK             N/A     52   9  17 MISG      29.77R
$$
...OTHER STATIONS IN TEXAS...

CITY           SKY/WX    TMP DP  RH WIND       PRES   REMARKS
ABILENE        CLOUDY    61  28  28 W6        29.68R
AMARILLO       PTCLDY    30  26  85 N17       29.80R WCI  18
AUSTIN         MOCLDY    67  63  87 W6        29.69R
BROWNSVILLE    PTCLDY    70  67  90 SE12      29.64F
CORPUS CHRISTI CLEAR     68  66  93 S16       29.62F
DALLAS FTW     PTCLDY    63  57  81 SW7       29.56F
DEL RIO        PTCLDY    60  44  55 NW3       29.67R
EL PASO        CLEAR     55   2  11 W17G31    29.87R
HOUSTON INT    PTCLDY    66  63  90 S8        29.67S
LUBBOCK        CLEAR     42  21  43 N13       29.75R WCI  35
SAN ANGELO     PTCLDY    54  32  43 SW6       29.70S
SAN ANTONIO    PTCLDY    60  58  92 NW14      29.69R
WACO           CLEAR     61  58  90 S10       29.62F
WICHITA FALLS  NOT AVBL
$$
...OTHER LOCATIONS IN NEW MEXICO...

CITY           SKY/WX    TMP DP  RH WIND       PRES   REMARKS
ALAMAGORDO     CLEAR     48   7  18 S14G21    29.89R
ALBUQUERQUE    PTCLDY    35  16  45 SW7       29.85R WCI  29
CANNON AFB     CLEAR     38  11  32 SW8       29.78R WCI  32
CLOVIS         CLEAR     30  16  55 N9        29.79R WCI  22
HOLLOMAN AFB   CLEAR     47   8  20 W22       29.89R WCI  40
ROSWELL        CLEAR     49   3  15 NW8         N/A
RUIDOSO        CLEAR     32  -2  23 W8        29.83R WCI  25
SANTA FE       CLEAR     28   8  43 W8        29.80R WCI  20
TRUTH OR CONSE CLEAR     40   2  20 NW8       29.87R WCI  34
TUCUMCARI      CLEAR     31  26  82 E6        29.80R WCI  25
$$

  • National Weather Service
  • Southern Region Headquarters
  • 819 Taylor Street, Room 10A06
  • Fort Worth, TX 76102
  • Page Author: NWS Fort Worth
  • Web Master: SR-SRH.Webmaster@noaa.gov
  •  
  • Page last modified: 30-Sep-2016 6:36 PM UTC
USA.gov is the U.S. government's official web portal to all federal, state and local government web resources and services.